Regional Weather Roundup
Issued by NWS Sioux Falls, SD

Home | Current Version | Previous Version | Text Only | Print | Product List | Glossary On
Versions: 1 2 3 4 5 6 7 8 9 10 11 12 13 14 15 16 17 18 19 20 21 22 23 24 25 26 27 28 29 30 31 32 33 34 35 36 37 38 39 40 41 42 43 44 45 46 47 48 49 50
400
ASUS43 KFSD 141510
RWRFSD

WEATHER ROUNDUP FOR SE SOUTH DAKOTA/SW MINNESOTA/NW IOWA
NATIONAL WEATHER SERVICE SIOUX FALLS SD
900 AM CST SUN FEB 14 2016

NOTE: "FAIR" INDICATES FEW OR NO CLOUDS BELOW 12,000 FEET WITH NO
SIGNIFICANT WEATHER AND OR OBSTRUCTIONS TO VISIBILITY.


SDZ038>040-050-052>070-141600-
SOUTHEAST SOUTH DAKOTA

CITY           SKY/WX    TMP DP  RH WIND       PRES   REMARKS
BROOKINGS      FLURRIES  14   9  80 S15       29.84S WCI  -1
CHAMBERLAIN    LGT SNOW  29  29  98 NW6       29.81S WCI  23
HURON          CLOUDY    16  12  84 S10       29.84S WCI   4
MADISON        CLOUDY    14  14 100 S12       29.83S WCI   0
MITCHELL       CLOUDY    17  13  84 SE7       29.86S WCI   8
SIOUX FALLS    CLOUDY    15  11  83 SE12      29.86S WCI   2
WINNER         FAIR      36  30  79 W12       29.82S
YANKTON        CLOUDY    18  12  79 E3        29.85S
$$

MNZ071-072-080-081-089-090-097-098-141600-
SOUTHWEST MINNESOTA

CITY           SKY/WX    TMP DP  RH WIND       PRES   REMARKS
FAIRMONT       CLOUDY    16   9  73 SE21      29.93F WCI  -2
JACKSON        LGT SNOW  16  10  79 SE13      29.91F WCI   2
LUVERNE        FLURRIES  18  12  79 S10       29.88S WCI   6
MARSHALL       CLOUDY    15  10  80 S15       29.91F WCI   0
MONTEVIDEO     CLOUDY    14  10  85 S15       29.94F WCI  -1
PIPESTONE      LGT SNOW  16   7  67 S12       29.85S WCI   3
REDWOOD FALLS  LGT SNOW  15  11  83 SE14      29.95F FOG     WCI   0
TRACY          CLOUDY    15  11  83 S12G18    29.90F WCI   2
WINDOM         LGT SNOW  14  10  85 SE15G21   29.90F VSB 1   WCI  -1
WORTHINGTON    CLOUDY    12   9  85 SE14G20   29.88F WCI  -3
$$

IAZ001>003-012>014-020>022-031-032-NEZ013-014-SDZ071-141600-
NORTHWEST IOWA

CITY           SKY/WX    TMP DP  RH WIND       PRES   REMARKS
CHEROKEE       CLOUDY    17  14  89 SE10      29.90F WCI   4
DENISON        CLOUDY    18  16  93 S12G18    29.87F WCI   5
ESTHERVILLE    LGT SNOW  13  11  92 SE18      29.92F FOG     WCI  -4
LE MARS        CLOUDY    18  16  93 SE10G21   29.88F WCI   6
ORANGE CITY    CLOUDY    16  16 100 SE7       29.87F WCI   6
SHELDON        CLOUDY    14  12  92 SE14G21   29.87F WCI  -1
SIOUX CITY     CLOUDY    20  14  77 SE10      29.88F WCI   9
SPENCER        CLOUDY    15  10  80 SE16      29.91S WCI  -1
STORM LAKE     CLOUDY    14  14 100 SE17      29.89F FOG     WCI  -3
$$

ABBREVIATIONS USED IN REMARKS
   TC - TEMPERATURE IN CELSIUS
  WCI - WIND CHILL INDEX
   HX - HEAT INDEX
  VSB - VISIBILITY





USA.gov is the U.S. government's official web portal to all federal, state and local government web resources and services.